Погода в Краснокамске

Россия / Пермский край     58°04′42″N   55°44′10″E
темп.,
°C
ветер,
м/с
пор.,
м/с
влажн.,
%
обл.,
%
осадки,
мм/ч
давл.,
гПа
погр.,
м
13 мая, чт
чт1323:00+16св0153100 0.0 102711
02:00+15ююв0060100 0.0 102710
05:00+13ююз006432 0.0 102710
08:00+18в115327 0.0 1027146
11:00+25юв113523 0.0 1027741
14:00+28юз12255 0.0 10261949
17:00+28зюз22255 0.0 10252413
20:00+24зюз22440 0.0 102425
14 мая, пт
пт1423:00+18юз23545 0.0 102539
02:00+16юз22575 0.0 102516
05:00+15ююз22645 0.0 102519
08:00+20ююз36525 0.0 1025260
11:00+25юз35355 0.0 10241072
14:00+28юз46305 0.0 10221960
17:00+28юз57315 0.0 10212185
20:00+25юз384362 0.0 1020290
15 мая, сб
сб1523:00+19ююз313619 0.0 1020324
02:00+18юз31064100 0.0 1020254
05:00+16юз3971100 0.0 1020199
08:00+19юз36606 0.0 1020303
11:00+25зюз464492 0.0 10201073
14:00+28зюз583789 0.0 10191873
17:00+28юз5833100 0.0 10182082
20:00+24юз4114299 0.0 1018590
16 мая, вс
вс1623:00+20юз41353100 0.0 1017378
02:00+17ююз3116476 0.0 1018235
05:00+17ююз3126535 0.0 1017269
08:00+20юз4125112 0.0 1017389
11:00+26юз510317 0.0 10161117
14:00+29юз6112212 0.0 10152634
17:00+30юз611265 0.0 10142917
20:00+26юз51236100 0.0 1013803
17 мая, пн
пн1723:00+20юз3105438 0.0 1013233
02:00+17ююз256697 0.1 101492
05:00+16ююз2482100 0.4 101471
08:00+19юз257497 0.2 1014281
11:00+22юз595253 0.2 10141097
14:00+25зюз5104651 0.4 10142307
17:00+26з69306 0.4 10132933
20:00+22сз494894 0.0 1014976